Simultaneous Nadir Overpasses (SNOs) Predictions

Prediction of SNOs between METOP-B and TERRA Satellite Orbit:

Table of predicted SNOs for the next 14.0 days since TLE Epoch: 11/2/2019
Index Date (METOP-B) Time (METOP-B) Lat,Lon (METOP-B) SZA (METOP-B ) Date (TERRA) Time (TERRA) Lat,Lon (TERRA) SZA (TERRA ) Distance(km) Time Diff (sec)
1 11/04/2019 05:31:39 -81.27, -36.55 80.40 11/04/2019 05:32:31 -81.27, -36.36 80.35 3.15 52
2 11/04/2019 06:22:18 81.28, 131.39 99.69 11/04/2019 06:21:57 81.28, 131.35 99.67 0.79 21
3 11/07/2019 01:06:02 -81.28, 30.24 79.51 11/07/2019 01:06:46 -81.27, 30.08 79.51 2.78 44
4 11/07/2019 01:56:42 81.28,-162.22 100.53 11/07/2019 01:56:12 81.27,-162.24 100.51 0.73 30
5 11/09/2019 20:40:26 -81.28, 96.62 78.70 11/09/2019 20:41:01 -81.27, 96.46 78.71 2.70 35
6 11/09/2019 21:31:05 81.28, -95.45 101.39 11/09/2019 21:30:26 81.29, -95.50 101.36 1.06 39
7 11/12/2019 16:14:48 -81.28, 163.37 77.90 11/12/2019 16:15:14 -81.28, 163.18 77.90 3.18 26
8 11/12/2019 17:05:28 81.28, -29.09 102.15 11/12/2019 17:04:40 81.28, -29.19 102.11 1.62 48
9 11/15/2019 11:49:13 -81.27,-130.68 77.23 11/15/2019 11:49:29 -81.28,-130.53 77.20 2.48 16




NCC Satellite Simultaneous Nadir Overpasses (SNOs) Prediction Service
